This is the latest recevied weather packets stored in our database for station/object W4DHW-4. If no packets are shown the sender has not sent any weather packets the latest 10 day(s).
| Time | Temp. | Humidity | Pressure | Rain* | Wind** | Luminosity | Snow |
|---|---|---|---|---|---|---|---|
| 1777782385 | 3.89° C | 83% | 1015.5 hPa | 0 mm | - | 0 W/m² | - |
| 1777782080 | 3.89° C | 82% | 1015.5 hPa | 0 mm | - | 0 W/m² | - |
| 1777781777 | 3.89° C | 82% | 1015.5 hPa | 0 mm | - | 0 W/m² | - |
| 1777781475 | 3.89° C | 82% | 1015.8 hPa | 0 mm | - | 0 W/m² | - |
| 1777781172 | 3.89° C | 81% | 1015.6 hPa | 0 mm | - | 0 W/m² | - |
| 1777780869 | 3.89° C | 81% | 1015.8 hPa | 0 mm | - | 0 W/m² | - |
| 1777780566 | 4.44° C | 81% | 1015.8 hPa | 0 mm | - | 0 W/m² | - |
| 1777780264 | 4.44° C | 80% | 1015.6 hPa | 0 mm | - | 0 W/m² | - |
| 1777779961 | 4.44° C | 79% | 1015.6 hPa | 0 mm | - | 0 W/m² | - |
| 1777779658 | 5° C | 77% | 1015.8 hPa | 0 mm | - | 0 W/m² | - |
| 1777779355 | 5° C | 76% | 1015.6 hPa | 0 mm | - | 0 W/m² | - |
| 1777779053 | 5° C | 77% | 1015.8 hPa | 0 mm | - | 0 W/m² | - |
| 1777778751 | 5° C | 76% | 1015.6 hPa | 0 mm | - | 0 W/m² | - |
| 1777778449 | 5° C | 76% | 1015.3 hPa | 0 mm | - | 0 W/m² | - |
| 1777778146 | 5° C | 77% | 1015.6 hPa | 0 mm | - | 0 W/m² | - |
| 1777777843 | 5° C | 77% | 1015.5 hPa | 0 mm | - | 0 W/m² | - |
| 1777777539 | 5.56° C | 76% | 1015.5 hPa | 0 mm | - | 0 W/m² | - |
| 1777777237 | 5.56° C | 74% | 1015.3 hPa | 0 mm | - | 0 W/m² | - |
| 1777776933 | 5.56° C | 72% | 1015.2 hPa | 0 mm | - | 0 W/m² | - |
| 1777776631 | 6.11° C | 72% | 1015.3 hPa | 0 mm | - | 0 W/m² | - |
| 1777776327 | 6.67° C | 70% | 1015.5 hPa | 0 mm | - | 0 W/m² | - |
| 1777776024 | 6.67° C | 66% | 1015.5 hPa | 0 mm | - | 0 W/m² | - |
| 1777775721 | 6.67° C | 67% | 1015.2 hPa | 0 mm | - | 0 W/m² | - |
| 1777775419 | 6.67° C | 67% | 1015.2 hPa | 0 mm | - | 0 W/m² | - |
| 1777775114 | 6.67° C | 69% | 1015.2 hPa | 0 mm | - | 0 W/m² | - |
* Rain latest hour (hover to see other rain measurements)
** Current wind speed in m/s (hover to see current wind gust speed)